Retour au catalogue

FENGYUN 1C DEB

ActifSSO
NORAD 41008·DEBRIS·🇨🇳 China

Lancé May 10, 1999 depuis Taiyuan Satellite Launch Center

Loading…

Prochains Passages (prochaines 24 heures)

TLE

FraisSource: Space-Track

Époque: Sep 12, 2026, 04:23 UTC

1 41008U 99025EXN 26255.18323421  .00001205  00000-0  70190-3 0  9990
2 41008  99.3540  41.4178 0501027 172.1161 188.8243 13.61516735601654

Suivez FENGYUN 1C DEB en temps réel avec AllMySat

Download on the App Store